Weather History for Corpus Christi NAS, TX

Change the Weather History Date:

Sunday, August 24, 2014

  Actual Average Record
Temperature  
Mean Temperature 86 °F -  
Max Temperature 93 °F 89 °F 95 °F (2005)
Min Temperature 81 °F 75 °F 72 °F (2003)
Cooling Degree Days 21    
Growing Degree Days 36 (Base 50)    
Moisture  
Dew Point 78 °F    
Average Humidity 77    
Maximum Humidity 94    
Minimum Humidity 59    
Precipitation  
Precipitation 0.00 in - - ()
Sea Level Pressure  
Sea Level Pressure 29.91 in    
Wind  
Wind Speed 11 mph (SSE)    
Max Wind Speed 20 mph    
Max Gust Speed -    
Visibility 10 miles    
Events      
Averages and records for this station are not official NWS values.
T = Trace of Precipitation, MM = Missing Value Source: NWS Daily Summary

Daily Weather History Graph

Daily Weather History Graph

Search for Another Location

Airport:

Trip Planner

Search our weather history database for the weather conditions in past years. The results will help you decide how hot, cold, wet, or windy it might be!

Date:

Astronomy

Aug. 24, 2014 Rise Set
Actual Time 7:04 AM CDT 7:58 PM CDT
Civil Twilight 6:40 AM CDT 8:22 PM CDT
Nautical Twilight 6:11 AM CDT 8:50 PM CDT
Astronomical Twilight 5:42 AM CDT 9:19 PM CDT
Moon 6:15 AM CDT (8/24) 7:20 PM CDT (8/24)
Length of Visible Light 13h 42m
Length of Day
12h 54m
Waning Crescent, 1% of the Moon is Illuminated
Aug 24
Waning Crescent
Aug 25
New
Sep 2
First Quarter
Sep 8
Full
Sep 15
Last Quarter

Hourly Weather History & Observations

Time (CDT) Temp. Heat Index Dew Point Humidity Pressure Visibility Wind Dir Wind Speed Gust Speed Precip Events Conditions
12:56 AM 84.0 °F 96.0 °F 79.0 °F 85% 29.93 in 10.0 mi SSE 10.4 mph - N/A   Mostly Cloudy
1:17 AM 82.9 °F 94.8 °F 80.1 °F 91% 29.93 in 10.0 mi SSE 11.5 mph - N/A   Scattered Clouds
1:56 AM 82.9 °F 93.8 °F 79.0 °F 88% 29.92 in 10.0 mi South 9.2 mph - N/A   Clear
2:56 AM 82.9 °F 93.8 °F 79.0 °F 88% 29.92 in 10.0 mi South 10.4 mph - N/A   Clear
3:56 AM 82.9 °F 93.8 °F 79.0 °F 88% 29.91 in 10.0 mi South 11.5 mph - N/A   Clear
4:56 AM 82.0 °F 91.6 °F 79.0 °F 90% 29.90 in 10.0 mi South 6.9 mph - N/A   Clear
5:56 AM 82.0 °F 91.6 °F 79.0 °F 90% 29.90 in 10.0 mi South 8.1 mph - N/A   Clear
6:56 AM 81.0 °F 89.2 °F 79.0 °F 94% 29.91 in 10.0 mi South 6.9 mph - N/A   Clear
7:56 AM 82.9 °F 93.8 °F 79.0 °F 88% 29.92 in 10.0 mi South 4.6 mph - N/A   Clear
8:56 AM 84.9 °F 96.6 °F 78.1 °F 80% 29.93 in 10.0 mi South 8.1 mph - N/A   Clear
9:56 AM 88.0 °F 100.2 °F 77.0 °F 70% 29.94 in 10.0 mi SSE 10.4 mph - N/A   Partly Cloudy
10:56 AM 89.1 °F 101.4 °F 77.0 °F 67% 29.94 in 10.0 mi SSE 11.5 mph - N/A   Partly Cloudy
11:56 AM 91.0 °F 102.9 °F 75.9 °F 61% 29.95 in 10.0 mi SSE 9.2 mph - N/A   Partly Cloudy
12:56 PM 91.9 °F 103.9 °F 75.9 °F 59% 29.94 in 10.0 mi ESE 12.7 mph - N/A   Partly Cloudy
1:56 PM 91.9 °F 103.9 °F 75.9 °F 59% 29.93 in 10.0 mi ESE 15.0 mph - N/A   Clear
2:56 PM 91.9 °F 105.9 °F 77.0 °F 62% 29.91 in 10.0 mi ESE 13.8 mph - N/A   Clear
3:56 PM 91.9 °F 107.3 °F 78.1 °F 64% 29.89 in 10.0 mi ESE 16.1 mph - N/A   Scattered Clouds
4:56 PM 91.0 °F 102.9 °F 75.9 °F 61% 29.88 in 10.0 mi ESE 17.3 mph - N/A   Clear
5:56 PM 89.1 °F 101.4 °F 77.0 °F 67% 29.86 in 10.0 mi SE 19.6 mph - N/A   Scattered Clouds
6:56 PM 87.1 °F 98.8 °F 77.0 °F 72% 29.85 in 10.0 mi SE 17.3 mph - N/A   Clear
7:56 PM 84.9 °F 96.6 °F 78.1 °F 80% 29.86 in 10.0 mi SE 18.4 mph - N/A   Clear
8:56 PM 84.9 °F 96.6 °F 78.1 °F 80% 29.87 in 10.0 mi SE 16.1 mph - N/A   Clear
9:56 PM 84.0 °F 93.7 °F 77.0 °F 79% 29.89 in 10.0 mi SE 13.8 mph - N/A   Clear
10:56 PM 84.0 °F 93.7 °F 77.0 °F 79% 29.91 in 10.0 mi SE 11.5 mph - N/A   Clear
11:56 PM 84.0 °F 94.8 °F 78.1 °F 82% 29.92 in 10.0 mi SE 12.7 mph - N/A   Partly Cloudy